Other Public Products
Issued by NWS Grand Forks, ND

Home | Current Version | Previous Version | Text Only | Print | Product List | Glossary Off
Versions: 1 2 3 4 5 6 7 8 9 10 11 12 13 14 15 16 17 18 19 20 21 22 23 24 25 26 27 28 29 30 31 32 33 34 35 36 37 38 39 40 41 42 43 44 45 46 47 48 49 50

000
FPUS83 KFGF 131310
OPUFGF
PRAIRIE TO PINES WEATHER ROUNDUP
NATIONAL WEATHER SERVICE EASTERN NORTH DAKOTA/GRAND FORKS ND
700 AM CST SAT FEB 13 2016

 **SATELLITE DATA USED TO AUGMENT SKY COVER AT AUTOMATED STATIONS**
 *****  WEATHER ACROSS EASTERN NORTH DAKOTA  *****

CITY           SKY/WX    TMP DP  RH WIND       PRES   REMARKS
GRAND FORKS    CLOUDY    -7 -14  71 SE7       30.57S WCI -21
GRAND FORKS AF CLOUDY    -8 -14  75 S8        30.54F WCI -25
GRAND CITY NWS NOT AVBL
BUXTON         NOT AVBL
DEVILS LAKE    CLOUDY    -6 -12  75 SE10      30.40F WCI -24
FARGO          CLOUDY    -5 -11  75 SE7       30.58F WCI -19
WAHPETON ARPT  CLOUDY    -4  -9  77 SE8       30.58F WCI -19
$$

 *****  WEATHER ACROSS CENTRAL AND WESTERN NORTH DAKOTA  *****

CITY           SKY/WX    TMP DP  RH WIND       PRES   REMARKS
JAMESTOWN      CLOUDY    -2  -9  72 SE9       30.42F WCI -18
BISMARCK       CLOUDY    10  -3  55 SE16      30.30F WCI  -7
MINOT          CLOUDY    10  -1  61 SE18      30.23F WCI  -8
MINOT AFB      CLOUDY     8   0  70 SE16      30.23F WCI  -9
GARRISON         N/A      8   2  76 SE16      30.21F WCI -10
WILLISTON      CLOUDY    15   9  76 SE10      30.08F WCI   2
DICKINSON      LGT SNOW  11   6  81 SE17      30.06F WCI  -6
HETTINGER      CLOUDY    12   9  87 SE15      30.11F FOG     WCI  -4
$$

 *****  OTHER OBSERVATIONS NORTHEAST NORTH DAKOTA  *****

CITY           SKY/WX    TMP DP  RH WIND       PRES   REMARKS
WALHALLA       FAIR     -11 -17  77 CALM      30.51F
LANGDON        FAIR     -13 -18  77 S13       30.40F WCI -34
CAVALIER       FAIR      -9 -13  84 S8        30.53F WCI -26
GRAFTON        FAIR     -11 -15  84 S8        30.57F WCI -28
CANDO          NOT AVBL
FORT TOTTEN    NOT AVBL
ROLLA          FAIR     -11 -17  77 S9        30.33F WCI -29
RUGBY          FAIR       0  -8  71 SE16      30.33F WCI -21
 ***** THE ABOVE OBSERVATIONS ARE NON NWS ARE NOT QUALITY
        CONTROLLED AND MAY MIS-REPORT RAIN FOR SNOW...
$$

 *****  OTHER OBSERVATIONS SOUTHEAST NORTH DAKOTA *****

CITY           SKY/WX    TMP DP  RH WIND       PRES   REMARKS
COOPERSTOWN    NOT AVBL
VALLEY CITY    PTSUNNY   -4 -11  71 SE12      30.47F WCI -22
OAKES          CLOUDY     0  -8  71 SE13      30.47F WCI -18
GWINNER        PTSUNNY    0  -8  71 SE14      30.50F WCI -19
SHEYENNE NWR     N/A     -5 -11  74 S7        29.95S WCI -19
BUFFALO        NOT AVBL
WYNDMERE       NOT AVBL
 ***** THE ABOVE OBSERVATIONS ARE NON NWS ARE NOT QUALITY
       CONTROLLED AND MAY MIS-REPORT RAIN FOR SNOW...
$$

  *****  WEATHER ACROSS NORTHERN MINNESOTA  *****

CITY           SKY/WX    TMP DP  RH WIND       PRES   REMARKS
FLAG ISLAND    CLOUDY   -24 -27  83 CALM      30.54F
WARROAD        PTCLDY   -26 -33  68 CALM      30.54S
ROSEAU         CLOUDY   -26 -33  68 S3        30.55F
HALLOCK        CLOUDY   -13 -18  77 SE9       30.54F WCI -31
THF RVR FALLS  CLOUDY   -17 -27  58 SE6       30.55F WCI -31
HALSTAD        NOT AVBL
FOSSTON          N/A    -27 -35  68 CALM      30.53F
BAUDETTE       PTCLDY   -26 -32  72 E3        30.53S
WASKISH        CLOUDY   -26 -31  75 CALM      30.53F
CROOKSTON      CLOUDY   -13 -18  77 SE7       30.58F WCI -29
$$
  *****  WEATHER ACROSS CENTRAL AND WEST MINNESOTA  *****

CITY           SKY/WX    TMP DP  RH WIND       PRES   REMARKS
BEMIDJI        PTCLDY   -26 -32  75 CALM      30.52F
PARK RAPIDS    CLOUDY   -21 -28  70 CALM      30.53S
WADENA         CLOUDY   -18 -24  76 CALM      30.54S
DETROIT LAKES  CLOUDY   -13 -18  77 S5        30.54F WCI -25
MOORHEAD       CLOUDY    -8 -11  84 S8        30.59R WCI -23
FERGUS FALLS   CLOUDY    -8 -15  71 SE3       30.61F
ELBOW LAKE     FAIR      -7 -12  77 CALM      30.57S
MORRIS MN      CLOUDY    -6  -9  84 E3        30.58S
STAPLES        CLOUDY   -20 -26  76 CALM      30.56S
WHEATON        CLOUDY    -2  -8  78 SE9       30.60S WCI -18
$$
  *****  WEATHER ELSEWHERE ACROSS MINNESOTA  *****

CITY           SKY/WX    TMP DP  RH WIND       PRES   REMARKS
DULUTH         CLOUDY   -16 -22  74 NW7       30.49S WCI -32
INTRNTL FALLS  CLOUDY   -25 -30  78 CALM      30.54S
ELY            CLOUDY   -26 -33  68 SW3       30.51R
CLOQUET        CLOUDY   -17 -24  70 NW5       30.52S WCI -29
BRAINERD       PTCLDY   -21 -26  77 CALM      30.56F
HIBBING        CLOUDY   -24 -29  77 CALM      30.53R
ALEXANDRIA     CLOUDY   -12 -18  74 CALM      30.55S
SAINT CLOUD    PTCLDY   -13 -18  78 CALM      30.62R
MINNEAPOLIS    PTCLDY    -5 -14  65 NW3       30.64R
$$

  *****  WEATHER ACROSS SOUTH DAKOTA  *****

CITY           SKY/WX    TMP DP  RH WIND       PRES   REMARKS
SIOUX FALLS    CLOUDY     1  -8  66 SE12      30.53F WCI -16
BROOKINGS      CLOUDY    -2  -9  72 SE9       30.49F WCI -18
WATERTOWN      CLOUDY     0 -10  63 SE8       30.46F WCI -14
HURON          CLOUDY     7  -3  64 SE12      30.48S WCI  -8
SISSETON         N/A     -3  -9  75 S10       30.54F WCI -20
ABERDEEN       CLOUDY     6  -7  54 SE12      30.47F WCI  -9
MITCHELL       CLOUDY     8   0  69 SE17      30.49F WCI -10
PIERRE         CLOUDY    14   9  80 SE13      30.30S WCI   0
MOBRIDGE       CLOUDY     9   0  67 SE18      30.28F WCI -10
RAPID CITY     CLOUDY    29  27  92 SE8       30.03F WCI  21
$$

  *****  SOME WEATHER IN NEARBY STATES *****

CITY           SKY/WX    TMP DP  RH WIND       PRES   REMARKS
GLASGOW MT     CLOUDY    17  13  84 E16       29.90F WCI   2
GREAT FALLS MT CLOUDY    43  34  70 SW12      29.89R
CHEYENNE WY    CLOUDY    41  21  44 W9        30.06F
SCOTTSBLUFF NE CLOUDY    30  28  92 SE8       30.08F WCI  22
OMAHA NE       CLOUDY    10   0  63 E8        30.62F WCI  -2
DES MOINES IA  CLOUDY     4  -5  66 CALM      30.63S
DAVENPORT IA     N/A      2  -5  72 NW7       30.63R WCI -11
CHICAGO IL     PTCLDY     2 -10  57 NW12      30.56R WCI -15
EAU CLAIRE WI  CLOUDY   -10 -18  67 CALM      30.60S
LA CROSSE WI   CLOUDY    -7 -17  62 N6        30.64R WCI -20
$$

  *****  SOME NATIONAL WEATHER *****

CITY           SKY/WX    TMP DP  RH WIND       PRES   REMARKS
LA GUARDIA NY  MOSUNNY   23   6  48 NW23G37   29.97R WCI   7
RALEIGH NC     PTCLDY    29   8  41 VRB5      30.24R WCI  24
ATLANTA GA     CLEAR     30  16  56 NW15      30.30R WCI  19
NEW ORLEANS LA PTCLDY    51  30  44 NE16      30.40R
OKLAHOMA CITY  PTCLDY    31  20  63 E10       30.42S WCI  22
ALBUQUERQUE NM CLOUDY    35  20  54 CALM      30.30S
SALT LAKE CITY FOG       29  27  92 NW7       30.30R VSB 1   WCI  22
LOS ANGELES CA FOG       52  51  97 CALM      30.08S VSB 1/4
BOISE ID       CLOUDY    33  32  96 CALM      30.25R FOG
SEATTLE WA     MOCLDY    45  41  86 S13       30.27R
$$

*** WEATHER ACROSS MANITOBA...SASKATCHEWAN AND ONTARIO ***
                ***ONTARIO***

CITY           SKY/WX    TMP DP  RH WIND       PRES   REMARKS
GERALDTON      CRYSTALS -20 -26  76 NW8       30.35R WCI -39
THUNDER BAY    PTCLDY   -17 -24  70 SW9       30.54R WCI -36
SIOUX LOOKOUT  PTCLDY   -26 -31  75 W3        30.47R
TORONTO        CLEAR    -15 -24  64 N15       30.31R WCI -38
BIG TROUT LK   CLEAR    -22 -27  76 W5        30.40R WCI -36
PICKLE LAKE    CRYSTALS -22 -29  69 W8        30.38R WCI -41
DRYDEN         MOCLDY   -24 -27  83 W6        30.48R WCI -40
KENORA         PTCLDY   -20 -26  76 SW5       30.50S WCI -33
$$
                *** MANITOBA***

CITY           SKY/WX    TMP DP  RH WIND       PRES   REMARKS
BRANDON        MOCLDY   -17 -22  76 E12       30.35F WCI -38
DAUPHIN        CLEAR    -18 -22  83 CALM      30.37F
ISLAND LAKE    NOT AVBL
PILOT MOUND      N/A    -17 -22  76 SE9         N/A  WCI -36
THE PAS        CLOUDY   -17 -24  70 SE12      30.30F WCI -38
THOMPSON       MOCLDY   -29 -36  68 VRB2      30.37F
WINNIPEG       CRYSTALS -17 -22  76 S10       30.54F WCI -37
LYNN LAKE      PTCLDY   -17 -22  76 S8        30.17F WCI -34
CHURCHILL      MOCLDY   -15 -22  70 W8        30.36F WCI -32
$$
                ***SASKATCHEWAN***

CITY           SKY/WX    TMP DP  RH WIND       PRES   REMARKS
ESTEVAN        LGT SNOW  10   5  79 SE20G29   30.09F DRFTSNOWWCI  -8
KINDERSLEY     NOT AVBL
LLOYDMINSTER   CLOUDY    10   9  92 E8        29.79F WCI  -1
PRINCE ALBERT  FLURRIES   1  -6  71 E13       29.99F WCI -16
REGINA         FLURRIES  10   7  85 SE25G31   30.00F WCI -10
YORKTON        MOCLDY    -4  -9  77 SE18G25   30.15F WCI -26
N. BATTLEFORD  CLOUDY    14  10  85 SE16G22   29.85F WCC1F1C2F2C3F3C4F4C5F5C6F6C7F7C8F8C9F9CaFaCbFbCcFcCdFdCe!


USA.gov is the U.S. government's official web portal to all federal, state and local government web resources and services.